sat.trackr.live / text

‹ back to catalog

ONEWEB-0024

NORAD 45137 · 2020-008G

PAYLOAD ACTIVE UNKNOWN

§ Identity

Operator
Country
UK
Launch date
2020-02-06
Launch site
TYMSC
Launch vehicle
Mass (kg)
RCS (m²)

Purposes: comms

External: N2YO · Heavens-Above · Gunter

§ Orbital elements

Epoch: 2026-09-12T02:11:52.239840Z

Period
109.89 min
Inclination
87.8910°
Eccentricity
0.0001733
Mean motion
13.10375821 rev/d
Perigee alt
1,220.4 km
Apogee alt
1,223.0 km
Semi-major
7,599.8 km
B*
7.3687e-4
RAAN
18.9603°
Arg perigee
97.5907°
Mean anomaly
262.5417°
Rev number
31,962

§ Raw data

ONEWEB-00241 45137U 20008G   26255.09157685  .00000270  00000+0  73687-3 0  99932 45137  87.8910  18.9603 0001733  97.5907 262.5417 13.10375821319622

JSON: /api/v1/satellites/45137 · /tle

For live sub-satellite position, see the globe view (requires WebGL).

§ Visibility from observer

Set your observer location to see the next 7 days of passes ≥ 10°. The values pass through the URL so the page stays shareable.

No JS? Fill the form by hand. The geolocation button needs JavaScript.